Showing default

O3B FM10, 40348

Orbit data source: Space-Track

O3B FM10, 40348 is a payload satellite owned by O3B (JE) that was launched on Thu, 18 Dec 2014 UTC via a SOYUZ-ST-B launch vehicle from the French Guiana (FRGUI). Payload-class satellites include a variety of spacecraft equipped with specific instruments for various scientific and technological missions. These include communications satellites like Starlink; space stations such as the ISS; scientific satellites like the Hubble; Earth observation satellites from companies like Planet Labs, Umbra, and HawkEye 360; GPS; miniature CubeSats for education and research; and military/defense satellites.

Loading next visibility...
Identifier
40348, 2014-083A
Orbit
Active
Last TLE update
2 days ago
Origin
Manufacturer
Thales Alenia
Mission
Operational Commercial Communications
Bus & Motor
PRISMA?, LS-400 AOCS?
Mass
700 kg wet, ~500 kg dry
Launch date (UTC)
2014-12-18 (11 years ago)
Launch vehicle
SOYUZ-ST-B
Launch site
French Guiana (FRGUI)
Object type
Payload
Rocket body
Debris
Shape & HBR
Trap Box + 2 Pan, 12 m
Radar Cross Section
21.980 m², Large (>1 m²)

Expand to show TLE details & history

TLE from 2 days ago
0 O3B FM10
1 40348U 14083A   25189.74710737 -.00000016  00000-0  00000-0 0  9994
2 40348   0.0713  12.9469 0002700  93.8442 253.2383  5.00115121192714
Epoch: 2025-07-08T17:55Z
TLE epoch observation values (Epoch: 2025-07-08T17:55:50.076Z)
Latitude
-0.01786°
Longitude
164.10371°
Altitude
8,065.507 km
Speed
5.254 km/s
True Right ascension
00h 00m 00s
True Declination
0° 01' 04"
Sunlit
Object was in daylight at epoch
Visualization orbit readout
Latitude
-0.076°
Longitude
95.69597°
Altitude
8,068.285 km
Speed
5.253 km/s
Apparent Right ascension
20h 45m 37s
Apparent Declination
-16° 54' 12"
Sunlit
Object is in full shadow
Visualization observer readout
Local Sidereal Time
14:51:48
Azimuth
104.062° ESE
Elevation
-9.599°
Doppler factor
1
Orbital elements
Apogee altitude
8,072.857 km
Perigee altitude
8,065.055 km
Semi-major axis
14,447.093 km
Eccentricity
0.00027
Inclination
0.0713°
RAAN
12.9469°
Arg. of periapsis
93.8442°
True anomaly
Unknown
Mean anomaly
253.2383°
Eccentric anomaly
Unknown
Mean motion
1.24989 °/min
Orbital period
288.02 mins
BSTAR
0
Loading maneuver chart data...
Loading SW <> Apogee altitude chart data...
Loading historical data...
Loading historical data...
Loading historical data...
Loading historical data...
Loading historical data...
Loading historical data...
Loading historical data...
Other satellites on launch #83 in the year 2014 (2014-12-18 UTC)

O3B FM10 Visibility forecast

Observer location: undefined°, undefined°

Span
Click to sort rows by Start time (UTC) header in descending order
Start Az.
Max El. time (UTC)
Max El. Az.
Max El.
End time (UTC)
End Az.
79 mins2025-07-11 06:47:13.657Z231.938° WSW2025-07-11 07:26:13.657Z180.566° SSW24.304°2025-07-11 08:06:13.657Z127.77° SE
78 mins2025-07-11 12:48:13.657Z230.999° WSW2025-07-11 13:26:13.657Z180.61° SSW24.384°2025-07-11 14:06:13.657Z127.683° SE
78 mins2025-07-11 18:48:13.657Z231.075° WSW2025-07-11 19:26:13.657Z180.556° SSW24.433°2025-07-11 20:06:13.657Z127.667° SE
78 mins2025-07-12 00:48:13.657Z231.016° WSW2025-07-12 01:26:13.657Z180.514° SSW24.353°2025-07-12 02:06:13.657Z127.754° SE
|